カタログに戻る

CZ-6A DEB

運用中SSO
NORAD 56678·DEBRIS·🇨🇳 China

打ち上げ Nov 11, 2022 から Taiyuan Satellite Launch Center

Loading…

次のパス (今後24時間)

TLE

経年Source: Space-Track

元期: Sep 11, 2026, 04:58 UTC

1 56678U 22151AHE 26254.20754642  .00000520  00000-0  29839-3 0  9993
2 56678  98.8431 250.8893 0063654 110.8517 249.9487 14.12603544174026

AllMySatでCZ-6A DEBをリアルタイム追跡

Download on the App Store